THOR ABLESTAR DEB, 410

Orbit data source: Space-Track

THOR ABLESTAR DEB, 410 is space debris in LEO originally from a launch on Thu, 29 Jun 1961 UTC launched from the Air Force Eastern Test Range (AFETR). Debris objects in space refer to the collection of defunct objects orbiting the Earth. Examples of debris include non-operational satellites, rocket bodies, and fragments generated from explosions, collisions, or faulty payload assembly.

Loading next visibility...
Identifier
410, 1961-015EK
Orbit
LEO
Country
Flag of USUS
Related business
Manufacturer
Unknown
Mission
Spacecraft
Bus & Motor
Unknown
Mass
Unknown
Launch date (UTC)
1961-06-29 (64 years ago)
Launch vehicle
Unknown
Launch site
Air Force Eastern Test Range (AFETR)
Object type
Payload
Rocket body
Debris
Shape & HBR
Unknown
Radar Cross Section
Medium (>0.1 m² and <1 m²)

Expand to show TLE details & history
Last TLE update: 18 hours ago

TLE from 18 hours ago
0 THOR ABLESTAR DEB
1 00410U 61015EK  25261.17831962  .00000022  00000-0  98751-4 0  9999
2 00410  66.6949 329.9883 0017466 211.2617 176.9615 13.76549002222630
Epoch: 2025-09-18T04:16Z
TLE epoch observation values (Epoch: 2025-09-18T04:16:46.815Z)
Latitude
25.79831°
Longitude
-79.59512°
Altitude
991.26 km
Speed
7.352 km/s
True Right ascension
22h 47m 46s
True Declination
25° 40' 05"
Sunlit
Object was in full shadow at epoch
Visualization orbit readout
Latitude
Unknown
Longitude
Unknown
Altitude
Unknown
Speed
Unknown
Apparent Right ascension
Unknown
Apparent Declination
Unknown
Sunlit
N/A
Visualization observer readout
Local Sidereal Time
14:38:50
Azimuth
Unknown
Elevation
Unknown
Doppler factor
Unknown
Orbital elements
Apogee altitude
987.411 km
Perigee altitude
961.727 km
Semi-major axis
7,352.706 km
Eccentricity
0.00175
Inclination
66.6949°
RAAN
329.9883°
Arg. of periapsis
211.2617°
True anomaly
176.97209°
Mean anomaly
176.9615°
Eccentric anomaly
176.9668°
Mean motion
3.44249 °/min
Orbital period
104.58 mins
BSTAR
0.000098751
Loading maneuver chart data...
Computing Atmospheric mass density...

Documentation

Showing up to 5 results
|